Weather History for KPSX - May, 2013

Change the Weather History Date:

Thursday, May 9, 2013

  Actual Average Record
Temperature  
Mean Temperature 76 °F -  
Max Temperature 80 °F 83 °F 96 °F (1998)
Min Temperature 73 °F 67 °F 51 °F (1984)
Cooling Degree Days 12    
Growing Degree Days 26 (Base 50)    
Moisture  
Dew Point 71 °F    
Average Humidity 86    
Maximum Humidity 94    
Minimum Humidity 74    
Precipitation  
Precipitation 0.00 in - - ()
Sea Level Pressure  
Sea Level Pressure 29.93 in    
Wind  
Wind Speed 11 mph (SE)    
Max Wind Speed 18 mph    
Max Gust Speed 28 mph    
Visibility 9 miles    
Events      
Averages and records for this station are not official NWS values.
T = Trace of Precipitation, MM = Missing Value Source: NWS Daily Summary

Daily Weather History Graph

Daily Weather History Graph

Search for Another Location

Airport or City:

Trip Planner

Search our weather history database for the weather conditions in past years. The results will help you decide how hot, cold, wet, or windy it might be!

Date:

Astronomy

May. 09, 2013 Rise Set
Actual Time 6:37 AM CDT 8:05 PM CDT
Civil Twilight 6:12 AM CDT 8:31 PM CDT
Nautical Twilight 5:41 AM CDT 9:01 PM CDT
Astronomical Twilight 5:10 AM CDT 9:33 PM CDT
Moon 6:20 AM CDT (5/9) 8:01 PM CDT (5/9)
Length of Visible Light 14h 18m
Length of Day
13h 27m
Waning Crescent, 0% of the Moon is Illuminated
May 9
Waning Crescent
May 9
New
May 17
First Quarter
May 24
Full
May 31
Last Quarter

Hourly Weather History & Observations

Time (CDT) Temp. Heat Index Dew Point Humidity Pressure Visibility Wind Dir Wind Speed Gust Speed Precip Events Conditions
12:53 AM 73.0 °F - 68.0 °F 84% 29.98 in 10.0 mi SE 10.4 mph - N/A   Overcast
1:42 AM 73.4 °F - 69.8 °F 88% 29.98 in 10.0 mi SE 9.2 mph - N/A   Overcast
1:53 AM 73.0 °F - 69.1 °F 87% 29.98 in 10.0 mi SSE 8.1 mph - N/A   Overcast
2:28 AM 73.4 °F - 69.8 °F 88% 29.96 in 10.0 mi SE 9.2 mph - N/A   Overcast
2:53 AM 73.0 °F - 69.1 °F 87% 29.96 in 10.0 mi SE 10.4 mph - N/A   Overcast
3:44 AM 73.4 °F - 69.8 °F 88% 29.94 in 10.0 mi SE 10.4 mph - N/A   Overcast
3:53 AM 73.0 °F - 70.0 °F 90% 29.95 in 10.0 mi SE 8.1 mph - N/A   Overcast
4:11 AM 73.4 °F - 69.8 °F 88% 29.94 in 10.0 mi SE 10.4 mph - N/A   Overcast
4:32 AM 73.4 °F - 69.8 °F 88% 29.94 in 10.0 mi SSE 11.5 mph - N/A   Overcast
4:43 AM 73.4 °F - 69.8 °F 88% 29.94 in 10.0 mi SSE 11.5 mph - N/A   Overcast
4:53 AM 73.0 °F - 70.0 °F 90% 29.93 in 10.0 mi SSE 12.7 mph - N/A   Overcast
5:24 AM 73.4 °F - 69.8 °F 88% 29.93 in 9.0 mi SSE 11.5 mph - N/A   Overcast
5:53 AM 73.9 °F - 70.0 °F 87% 29.93 in 10.0 mi SE 9.2 mph - N/A   Overcast
6:40 AM 73.4 °F - 71.6 °F 94% 29.95 in 9.0 mi SE 10.4 mph - N/A   Overcast
6:53 AM 73.9 °F - 71.1 °F 91% 29.95 in 8.0 mi SE 8.1 mph - N/A   Overcast
7:03 AM 73.4 °F - 71.6 °F 94% 29.95 in 8.0 mi SE 9.2 mph - N/A   Overcast
7:25 AM 73.4 °F - 71.6 °F 94% 29.96 in 8.0 mi SE 8.1 mph - N/A   Overcast
7:35 AM 73.4 °F - 71.6 °F 94% 29.96 in 8.0 mi SE 8.1 mph - N/A   Overcast
7:53 AM 75.0 °F - 71.1 °F 87% 29.96 in 7.0 mi SSE 10.4 mph - N/A   Overcast
8:53 AM 75.9 °F - 72.0 °F 87% 29.98 in 8.0 mi SE 11.5 mph - N/A   Overcast
9:22 AM 75.2 °F - 71.6 °F 89% 29.98 in 8.0 mi SE 12.7 mph - N/A   Overcast
9:53 AM 77.0 °F - 72.0 °F 84% 29.98 in 9.0 mi SE 13.8 mph - N/A   Overcast
10:16 AM 78.8 °F - 71.6 °F 78% 29.98 in 9.0 mi SSE 15.0 mph - N/A   Overcast
10:53 AM 79.0 °F - 72.0 °F 79% 29.97 in 10.0 mi SSE 18.4 mph 26.5 mph N/A   Overcast
11:29 AM 80.6 °F 84.6 °F 71.6 °F 74% 29.97 in 10.0 mi SE 16.1 mph - N/A   Overcast
11:45 AM 80.6 °F 84.6 °F 71.6 °F 74% 29.97 in 10.0 mi SSE 18.4 mph 25.3 mph N/A   Overcast
11:53 AM 78.8 °F - 71.6 °F 78% 29.97 in 10.0 mi SSE 17.3 mph 25.3 mph N/A   Overcast
12:53 PM 80.1 °F 83.6 °F 71.1 °F 74% 29.96 in 9.0 mi SSE 17.3 mph 27.6 mph N/A   Overcast
1:53 PM 79.0 °F - 71.1 °F 77% 29.96 in 9.0 mi SSE 16.1 mph 25.3 mph N/A   Overcast
2:53 PM 77.0 °F - 71.6 °F 83% 29.94 in 9.0 mi SSE 16.1 mph 21.9 mph N/A   Overcast
3:32 PM 78.8 °F - 71.6 °F 78% 29.93 in 9.0 mi SSE 17.3 mph 23.0 mph N/A   Mostly Cloudy
3:53 PM 78.1 °F - 71.1 °F 79% 29.92 in 9.0 mi SSE 16.1 mph 20.7 mph N/A   Overcast
4:53 PM 77.0 °F - 71.1 °F 82% 29.88 in 9.0 mi SSE 13.8 mph - N/A   Overcast
5:53 PM 78.1 °F - 71.1 °F 79% 29.85 in 10.0 mi SSE 17.3 mph 26.5 mph N/A   Mostly Cloudy
6:27 PM 78.8 °F - 71.6 °F 78% 29.85 in 9.0 mi SSE 16.1 mph 23.0 mph N/A   Overcast
6:53 PM 77.0 °F - 71.1 °F 82% 29.85 in 9.0 mi SE 15.0 mph - N/A   Mostly Cloudy
7:42 PM 75.2 °F - 71.6 °F 89% 29.86 in 8.0 mi SE 11.5 mph - N/A   Overcast
7:53 PM 75.9 °F - 71.1 °F 85% 29.87 in 8.0 mi SE 11.5 mph - N/A   Overcast
8:43 PM 75.2 °F - 71.6 °F 89% 29.88 in 9.0 mi SE 12.7 mph - N/A   Overcast
8:53 PM 75.9 °F - 72.0 °F 87% 29.89 in 9.0 mi SE 10.4 mph - N/A   Overcast
9:09 PM 75.2 °F - 71.6 °F 89% 29.89 in 9.0 mi SE 10.4 mph - N/A   Overcast
9:17 PM 75.2 °F - 71.6 °F 89% 29.89 in 8.0 mi SE 11.5 mph - N/A   Overcast
9:25 PM 75.2 °F - 71.6 °F 89% 29.88 in 8.0 mi SE 11.5 mph - N/A   Overcast
9:32 PM 75.2 °F - 71.6 °F 89% 29.89 in 8.0 mi SE 10.4 mph - N/A   Overcast
9:41 PM 75.2 °F - 71.6 °F 89% 29.90 in 8.0 mi SE 10.4 mph - N/A   Overcast
9:53 PM 75.9 °F - 72.0 °F 87% 29.90 in 7.0 mi SE 10.4 mph - N/A   Overcast
10:53 PM 75.0 °F - 72.0 °F 90% 29.90 in 7.0 mi SE 10.4 mph - N/A   Overcast
11:53 PM 75.2 °F - 71.6 °F 89% 29.89 in 7.0 mi SE 10.4 mph - N/A   Overcast